Kenansville, NC

2:08 AM EDT on August 19, 2017 (GMT -0400)
Duplin County

Weather History for KDPL - July, 2013

Change the Weather History Date:

Monday, July 1, 2013

  Actual Average (KOAJ) Record (KOAJ)
Temperature  
Mean Temperature 75 °F -  
Max Temperature 81 °F 86 °F 100 °F (2012)
Min Temperature 69 °F 66 °F 62 °F (2002)
Cooling Degree Days 10    
Growing Degree Days 25 (Base 50)    
Moisture  
Dew Point 72 °F    
Average Humidity 91    
Maximum Humidity 95    
Minimum Humidity 76    
Precipitation  
Precipitation 0.92 in - - ()
Sea Level Pressure  
Sea Level Pressure 29.96 in    
Wind  
Wind Speed 3 mph (SSE)    
Max Wind Speed 9 mph    
Max Gust Speed -    
Visibility 8 miles    
Events Rain    
Averages and records for this station are not official NWS values.
T = Trace of Precipitation, MM = Missing Value Source: NWS Daily Summary

Daily Weather History Graph

Daily Weather History Graph

Search for Another Location

Airport or City:

Trip Planner

Search our weather history database for the weather conditions in past years. The results will help you decide how hot, cold, wet, or windy it might be!

Date:

Astronomy

Jul. 01, 2013 Rise Set
Actual Time 6:01 AM EDT 8:29 PM EDT
Civil Twilight 5:32 AM EDT 8:59 PM EDT
Nautical Twilight 4:55 AM EDT 9:35 PM EDT
Astronomical Twilight 4:15 AM EDT 10:16 PM EDT
Moon 1:21 AM EDT (7/1) 2:50 PM EDT (7/1)
Length of Visible Light 15h 27m
Length of Day
14h 28m
Waning Crescent, 35% of the Moon is Illuminated
Jul 1
Waning Crescent
Jul 8
New
Jul 15
First Quarter
Jul 22
Full
Jul 29
Last Quarter

Hourly Weather History & Observations

Time (EDT) Temp. Heat Index Dew Point Humidity Pressure Visibility Wind Dir Wind Speed Gust Speed Precip Events Conditions
12:15 AM 75.4 °F - 73.2 °F 93% 29.88 in 7.0 mi SE 3.5 mph - N/A   Mostly Cloudy
12:35 AM 75.2 °F - 73.4 °F 94% 29.88 in 7.0 mi SE 4.6 mph - N/A   Mostly Cloudy
12:55 AM 75.4 °F - 73.4 °F 94% 29.89 in 4.0 mi Calm Calm - 0.02 in Rain Rain
1:15 AM 75.4 °F - 73.4 °F 94% 29.89 in 5.0 mi Calm Calm - 0.02 in Rain Light Rain
1:35 AM 75.2 °F - 73.4 °F 94% 29.89 in 5.0 mi SW 3.5 mph - 0.03 in Rain Light Rain
1:55 AM 75.0 °F - 72.9 °F 93% 29.89 in 10.0 mi Calm Calm - 0.04 in   Scattered Clouds
2:15 AM 74.5 °F - 72.5 °F 94% 29.89 in 10.0 mi Calm Calm - N/A   Scattered Clouds
2:35 AM 74.3 °F - 72.1 °F 93% 29.89 in 10.0 mi Calm Calm - N/A   Mostly Cloudy
2:55 AM 74.1 °F - 72.1 °F 94% 29.88 in 7.0 mi Calm Calm - N/A   Mostly Cloudy
3:15 AM 73.8 °F - 72.0 °F 94% 29.88 in 7.0 mi Calm Calm - N/A   Scattered Clouds
3:35 AM 73.4 °F - 71.8 °F 95% 29.88 in 4.0 mi Calm Calm - N/A   Scattered Clouds
3:55 AM 73.9 °F - 72.5 °F 95% 29.88 in 7.0 mi SSE 3.5 mph - N/A   Scattered Clouds
4:15 AM 74.3 °F - 72.5 °F 94% 29.88 in 7.0 mi Calm Calm - N/A   Scattered Clouds
4:35 AM 73.9 °F - 72.0 °F 93% 29.89 in 7.0 mi Calm Calm - N/A   Clear
4:55 AM 73.8 °F - 72.0 °F 94% 29.89 in 7.0 mi Calm Calm - N/A   Clear
5:15 AM 73.6 °F - 71.8 °F 94% 29.91 in 7.0 mi Calm Calm - N/A   Scattered Clouds
5:35 AM 73.6 °F - 71.8 °F 94% 29.92 in 5.0 mi Calm Calm - 0.01 in   Scattered Clouds
5:55 AM 73.6 °F - 71.8 °F 94% 29.92 in 7.0 mi Calm Calm - 0.01 in   Scattered Clouds
6:15 AM 73.6 °F - 71.8 °F 94% 29.93 in 5.0 mi Calm Calm - N/A   Mostly Cloudy
6:35 AM 74.1 °F - 72.3 °F 94% 29.93 in 5.0 mi Calm Calm - N/A   Mostly Cloudy
6:55 AM 74.3 °F - 72.5 °F 94% 29.94 in 3.0 mi Calm Calm - 0.01 in Rain Rain
7:15 AM 73.8 °F - 71.4 °F 92% 29.95 in 1.5 mi SSW 5.8 mph - 0.22 in Rain Heavy Rain
7:35 AM 73.2 °F - 70.7 °F 92% 29.95 in 10.0 mi SSE 4.6 mph - 0.26 in   Scattered Clouds
7:55 AM 73.0 °F - 70.7 °F 92% 29.95 in 7.0 mi South 3.5 mph - 0.27 in Rain Rain
8:15 AM 72.5 °F - 70.3 °F 93% 29.96 in 4.0 mi SSE 4.6 mph - 0.03 in Rain Light Rain
8:35 AM 72.7 °F - 70.7 °F 93% 29.96 in 7.0 mi SSE 4.6 mph - 0.04 in Rain Light Rain
8:55 AM 73.2 °F - 71.1 °F 93% 29.95 in 7.0 mi SSE 4.6 mph - 0.04 in Rain Light Rain
9:15 AM 73.6 °F - 71.4 °F 93% 29.96 in 10.0 mi Calm Calm - N/A   Mostly Cloudy
9:35 AM 74.3 °F - 71.8 °F 92% 29.96 in 7.0 mi SSE 3.5 mph - 0.01 in   Overcast
9:55 AM 75.6 °F - 72.5 °F 90% 29.96 in 10.0 mi SSE 6.9 mph - 0.01 in   Overcast
10:15 AM 76.1 °F - 72.7 °F 89% 29.96 in 10.0 mi SE 4.6 mph - N/A   Overcast
10:35 AM 77.9 °F - 73.0 °F 85% 29.97 in 10.0 mi SE 4.6 mph - N/A   Mostly Cloudy
10:55 AM 77.9 °F - 73.0 °F 85% 29.97 in 10.0 mi SSE 6.9 mph - N/A   Mostly Cloudy
11:15 AM 78.1 °F - 73.2 °F 85% 29.97 in 7.0 mi SE 4.6 mph - N/A Rain Light Rain
11:35 AM 77.2 °F - 72.9 °F 86% 29.96 in 7.0 mi SSE 5.8 mph - N/A   Overcast
11:55 AM 77.7 °F - 73.2 °F 86% 29.96 in 10.0 mi SSE 5.8 mph - N/A   Overcast
12:15 PM 77.5 °F - 72.3 °F 84% 29.96 in 10.0 mi SSE 5.8 mph - N/A   Mostly Cloudy
12:35 PM 77.9 °F - 72.1 °F 82% 29.97 in 10.0 mi SSE 4.6 mph - N/A   Mostly Cloudy
12:55 PM 79.0 °F - 72.5 °F 80% 29.98 in 10.0 mi SSE 6.9 mph - N/A   Mostly Cloudy
1:15 PM 80.4 °F 84.7 °F 72.7 °F 77% 29.97 in 10.0 mi SE 6.9 mph - N/A   Mostly Cloudy
1:35 PM 81.5 °F 86.7 °F 73.2 °F 76% 29.97 in 10.0 mi SSE 5.8 mph - N/A   Mostly Cloudy
1:55 PM 79.7 °F - 73.0 °F 80% 29.97 in 10.0 mi SSE 9.2 mph - N/A   Mostly Cloudy
2:15 PM 79.7 °F - 72.5 °F 79% 29.96 in 10.0 mi SSE 6.9 mph - N/A   Mostly Cloudy
2:35 PM 77.2 °F - 73.2 °F 88% 29.98 in 5.0 mi SSE 6.9 mph - N/A Rain Light Rain
2:55 PM 74.1 °F - 71.6 °F 92% 29.99 in 1.0 mi SSE 6.9 mph - 0.19 in Rain Heavy Rain
3:15 PM 70.9 °F - 68.7 °F 93% 29.99 in 1.8 mi SSE 5.8 mph - 0.13 in Rain Heavy Rain
3:35 PM 69.8 °F - 68.0 °F 94% 29.98 in 3.0 mi ESE 4.6 mph - 0.20 in Rain Heavy Rain
3:55 PM 70.0 °F - 68.0 °F 93% 30.00 in 1.8 mi SSE 3.5 mph - 0.30 in Rain Heavy Rain
4:15 PM 70.2 °F - 68.4 °F 94% 29.99 in 7.0 mi SE 5.8 mph - 0.01 in Rain Light Rain
4:35 PM 70.3 °F - 68.5 °F 94% 30.00 in 10.0 mi SSE 5.8 mph - 0.02 in   Scattered Clouds
4:55 PM 70.7 °F - 68.9 °F 94% 29.99 in 10.0 mi ESE 5.8 mph - 0.02 in Rain Light Rain
5:15 PM 70.7 °F - 69.1 °F 95% 29.99 in 7.0 mi ESE 3.5 mph - N/A Rain Rain
5:35 PM 71.4 °F - 69.6 °F 94% 29.99 in 10.0 mi SE 3.5 mph - 0.01 in   Scattered Clouds
5:55 PM 72.1 °F - 70.3 °F 94% 29.99 in 10.0 mi SSE 3.5 mph - 0.01 in   Scattered Clouds
6:15 PM 73.0 °F - 71.2 °F 94% 29.99 in 10.0 mi Calm Calm - N/A   Mostly Cloudy
6:35 PM 73.6 °F - 71.6 °F 93% 30.00 in 5.0 mi Calm Calm - N/A   Overcast
6:55 PM 73.9 °F - 72.0 °F 93% 30.00 in 7.0 mi SSE 3.5 mph - N/A   Overcast
7:15 PM 74.3 °F - 72.1 °F 93% 30.01 in 7.0 mi SSE 4.6 mph - N/A   Overcast
7:35 PM 74.3 °F - 72.0 °F 92% 30.03 in 7.0 mi SSE 3.5 mph - N/A   Overcast
7:55 PM 74.3 °F - 71.8 °F 92% 30.03 in 7.0 mi SSE 3.5 mph - N/A   Mostly Cloudy
8:15 PM 73.9 °F - 71.6 °F 92% 30.02 in 10.0 mi SSE 3.5 mph - N/A   Mostly Cloudy
8:35 PM 73.6 °F - 71.6 °F 93% 30.02 in 10.0 mi Calm Calm - N/A   Mostly Cloudy
8:55 PM 73.6 °F - 71.4 °F 93% 30.03 in 10.0 mi Calm Calm - N/A   Scattered Clouds
9:15 PM 73.4 °F - 71.2 °F 93% 30.03 in 10.0 mi SSE 3.5 mph - N/A   Scattered Clouds
9:35 PM 73.4 °F - 71.2 °F 93% 30.04 in 10.0 mi Calm Calm - N/A   Scattered Clouds
9:55 PM 73.4 °F - 71.1 °F 92% 30.05 in 10.0 mi SSE 3.5 mph - N/A   Scattered Clouds
10:15 PM 73.4 °F - 71.2 °F 93% 30.05 in 10.0 mi Calm Calm - N/A   Mostly Cloudy
10:35 PM 73.2 °F - 71.4 °F 94% 30.05 in 10.0 mi SSE 3.5 mph - N/A   Scattered Clouds
10:55 PM 73.4 °F - 71.4 °F 93% 30.05 in 10.0 mi SSE 3.5 mph - N/A   Scattered Clouds
11:15 PM 73.4 °F - 71.6 °F 94% 30.06 in 7.0 mi SSE 4.6 mph - N/A   Mostly Cloudy
11:35 PM 73.6 °F - 71.6 °F 93% 30.06 in 10.0 mi SSE 3.5 mph - N/A   Mostly Cloudy
11:55 PM 73.9 °F - 71.6 °F 92% 30.06 in 10.0 mi SSE 3.5 mph - N/A   Overcast